Regional Weather Roundup
Issued by NWS

Home | Current Version | Previous Version | Text Only | Print | Product List | Glossary On
Versions: 1 2 3 4 5 6 7 8 9 10 11 12 13 14 15 16 17 18 19 20 21 22 23 24 25 26 27 28 29 30 31 32 33 34 35 36 37 38 39 40 41 42 43 44 45 46 47 48 49 50
532
ASUS43 KMKX 281821
RWRWI

WISCONSIN REGIONAL WEATHER ROUNDUP
NATIONAL WEATHER SERVICE MILWAUKEE/SULLIVAN WI
100 PM CDT WED JUN 28 2017

NOTE: "FAIR" INDICATES FEW OR NO CLOUDS BELOW 12,000 FEET WITH NO
SIGNIFICANT WEATHER AND/OR OBSTRUCTIONS TO VISIBILITY.

WIZ001-002-006>008-014>016-023>028-281900-
NORTHWEST WISCONSIN

CITY           SKY/WX    TMP DP  RH WIND       PRES   REMARKS
SUPERIOR ARPT  NOT AVBL
ASHLAND        RAIN      62  60  93 E5        29.64F FOG
6HR MIN TEMP:  59; 6HR MAX TEMP:  65; 6HR PCP:  0.23;

HAYWARD        LGT RAIN  62  60  93 SE7       29.62F
6HR MIN TEMP:  59; 6HR MAX TEMP:  63; 6HR PCP:  0.28;

SIREN          RAIN      65  64  95 S8        29.58R
6HR MIN TEMP:  58; 6HR MAX TEMP:  65; 6HR PCP:  0.15;

CUMBERLAND     CLOUDY    64  63  94 S15       29.60F
RICE LAKE      CLOUDY    67  65  93 SE13      29.62F
6HR MIN TEMP:  59; 6HR MAX TEMP:  67; 6HR PCP:  0.12;

CHETEK         CLOUDY    66  65  95 SE16      29.63F
6HR MIN TEMP:  59; 6HR MAX TEMP:  66; 6HR PCP:  0.10;

LADYSMITH      CLOUDY    63  61  94 SE9       29.68F
6HR MIN TEMP:  60; 6HR MAX TEMP:  64; 6HR PCP:  0.11;

EAU CLAIRE     CLOUDY    67  65  93 S15       29.64F
6HR MIN TEMP:  62; 6HR MAX TEMP:  68; 6HR PCP:  0.21;

MENOMONIE      CLOUDY    69  66  90 SE16      29.63F
6HR MIN TEMP:  60; 6HR MAX TEMP:  69; 6HR PCP:  0.15;

NEW RICHMOND   LGT RAIN  67  65  91 S10G18    29.60S
6HR MIN TEMP:  60; 6HR MAX TEMP:  68; 6HR PCP:  0.17;

OSCEOLA        CLOUDY    68  68 100 S13       29.61S
6HR MIN TEMP:  60; 6HR MAX TEMP:  68; 6HR PCP:  0.26;

$$

WIZ003>005-009-010-017-018-281900-
NORTH CENTRAL WISCONSIN

CITY           SKY/WX    TMP DP  RH WIND       PRES   REMARKS
MANITOWISH WTR LGT RAIN  61  61 100 S10       29.72F
6HR MIN TEMP:  58; 6HR MAX TEMP:  62;

ARBOR VITAE    LGT RAIN  62  59  91 S9        29.72F
6HR MIN TEMP:  59; 6HR MAX TEMP:  63;

WOODRUFF       LGT RAIN  62  59  91 S9        29.72F
6HR MIN TEMP:  59; 6HR MAX TEMP:  63;

RHINELANDER    LGT RAIN  59  59 100 S9G18     29.76F
6HR MIN TEMP:  56; 6HR MAX TEMP:  61; 6HR PCP:  0.10;

EAGLE RIVER    CLOUDY    61  58  91 S3        29.75F
6HR MIN TEMP:  55; 6HR MAX TEMP:  61;

LAND O LAKES   CLOUDY    61  58  89 S6        29.77F
6HR MIN TEMP:  57; 6HR MAX TEMP:  63;

PHILLIPS       LGT RAIN  61  61 100 S9        29.70F
6HR MIN TEMP:  59; 6HR MAX TEMP:  61; 6HR PCP:  0.04;

TOMAHAWK       NOT AVBL
MEDFORD        RAIN      60  59  97 SE8       29.72F
6HR MIN TEMP:  55; 6HR MAX TEMP:  60; 6HR PCP:  0.18;

MERRILL        LGT RAIN  60  60 100 SE6       29.76F
6HR MIN TEMP:  56; 6HR MAX TEMP:  62; 6HR PCP:  0.09;

$$

WIZ029-030-035-036-043>047-281900-
CENTRAL WISCONSIN

CITY           SKY/WX    TMP DP  RH WIND       PRES   REMARKS
WAUSAU         RAIN      61  60  97 SE9       29.74F FOG
MOSINEE        HVY RAIN  61  61 100 SE8       29.77F VSB 1
MARSHFIELD     LGT RAIN  63  60  90 CALM      29.73F FOG
6HR MIN TEMP:  56; 6HR MAX TEMP:  63; 6HR PCP:  0.31;

STEVENS POINT  RAIN      60  60 100 S8        29.76F
6HR MIN TEMP:  56; 6HR MAX TEMP:  61; 6HR PCP:  0.14;

WAUPACA        RAIN      66  64  94 S9        29.79S
6HR MIN TEMP:  60; 6HR MAX TEMP:  66; 6HR PCP:  0.01;

WAUTOMA        LGT RAIN  64  62  93 S14       29.77F
6HR MIN TEMP:  58; 6HR MAX TEMP:  64; 6HR PCP:  0.19;

WISC RAPIDS    LGT RAIN  65  63  93 SW12G21   29.75F
6HR MIN TEMP:  58; 6HR MAX TEMP:  64; 6HR PCP:  0.43;

CAMP DOUGLAS   LGT RAIN  68  66  94 S12G22    29.73F
                                      6HR PCP:  0.18;

$$

WIZ011>013-019>022-031-037>040-048>050-281900-
NORTHEAST WISCONSIN

CITY           SKY/WX    TMP DP  RH WIND       PRES   REMARKS
ANTIGO         RAIN      60  58  96 SE13      29.78F
6HR MIN TEMP:  54; 6HR MAX TEMP:  60; 6HR PCP:  0.05;

SHAWANO        LGT RAIN  66  61  82 S5        29.79F
OCONTO         CLOUDY    64  61  88 S6        29.81R
6HR MIN TEMP:  62; 6HR MAX TEMP:  66; 6HR PCP:  0.01;

STURGEON BAY   LGT RAIN  60  56  86 S10       29.84R
6HR MIN TEMP:  59; 6HR MAX TEMP:  63; 6HR PCP: TRACE;

GREEN BAY      RAIN      66  63  90 S9G18     29.82R FOG
6HR MIN TEMP:  61; 6HR MAX TEMP:  67; 6HR PCP:  0.01;

MANITOWOC      LGT RAIN  61  57  87 S14       29.86R
6HR MIN TEMP:  57; 6HR MAX TEMP:  62; 6HR PCP:  0.09;

APPLETON       LGT RAIN  64  63  94 S14       29.79F
CLINTONVILLE   LGT RAIN  63  59  88 S6        29.78F
OSHKOSH        RAIN      63  60  90 S16G24    29.80F FOG
6HR MIN TEMP:  60; 6HR MAX TEMP:  66; 6HR PCP:  0.07;

$$

WIZ032>034-041-042-053>061-281900-
SOUTHWEST WISCONSIN

CITY           SKY/WX    TMP DP  RH WIND       PRES   REMARKS
LA CROSSE      CLOUDY    72  67  84 S12       29.69S
6HR MIN TEMP:  66; 6HR MAX TEMP:  72; 6HR PCP:  0.45;

SPARTA         CLOUDY    65  64  94 S9        29.72F
6HR MIN TEMP:  60; 6HR MAX TEMP:  66; 6HR PCP:  0.32;

VIROQUA        CLOUDY    66  66 100 S13       29.73F
6HR MIN TEMP:  60; 6HR MAX TEMP:  66; 6HR PCP:  0.66;

BOSCOBEL       CLOUDY    70  66  87 S9        29.74F
6HR MIN TEMP:  62; 6HR MAX TEMP:  71; 6HR PCP:  0.46;

PRAIRIE DU CHI PTSUNNY   73  66  77 SE8       29.73S
6HR MIN TEMP:  61; 6HR MAX TEMP:  73; 6HR PCP:  0.19;

PLATTEVILLE    CLOUDY    67  67 100 S14G22    29.79S
6HR MIN TEMP:  61; 6HR MAX TEMP:  67; 6HR PCP:  0.25;

$$

WIZ056-057-062-063-064-067-068-281900-
SOUTH CENTRAL WISCONSIN

CITY           SKY/WX    TMP DP  RH WIND       PRES   REMARKS
REEDSBURG      RAIN      65  65 100 SE8G20    29.74F
6HR MIN TEMP:  60; 6HR MAX TEMP:  65; 6HR PCP:  0.22;

BARABOO/DELLS  LGT RAIN  64  62  93 S14       29.78F
6HR MIN TEMP:  59; 6HR MAX TEMP:  64; 6HR PCP:  0.17;

LONE ROCK      LGT RAIN  68  64  87 CALM      29.78F
6HR MIN TEMP:  62; 6HR MAX TEMP:  68; 6HR PCP:  0.39;

MINERAL POINT  LGT RAIN  66  66 100 S16       29.78F
MADISON        LGT RAIN  65  63  93 SW8       29.82S
6HR MIN TEMP:  62; 6HR MAX TEMP:  65; 6HR PCP:  0.12;

MIDDLETON      CLOUDY    67  65  93 SW8G16    29.83S
6HR MIN TEMP:  62; 6HR MAX TEMP:  67; 6HR PCP:  0.10;

WATERTOWN      DRIZZLE   63  63 100 S12       29.83F
6HR MIN TEMP:  60; 6HR MAX TEMP:  63; 6HR PCP:  0.01;

MONROE         DRIZZLE   64  63  94 S16G25    29.82F
JANESVILLE     PTSUNNY   68  66  94 S17       29.84F
$$

WIZ051-052-058>065-066-070>072-281900-
SOUTHEAST WISCONSIN

CITY           SKY/WX    TMP DP  RH WIND       PRES   REMARKS
MILWAUKEE      CLOUDY    65  60  84 S16       29.88R
6HR MIN TEMP:  62; 6HR MAX TEMP:  68; 6HR PCP:  0.16;

WAUKESHA       CLOUDY    61  57  88 SW10G17   29.90R
MILWAUKEE/TIMM DRIZZLE   63  57  82 SW13G20   29.89
RACINE         CLOUDY    65  59  81 S13G28    29.90R
6HR MIN TEMP:  62; 6HR MAX TEMP:  68; 6HR PCP:  0.02;

KENOSHA        CLOUDY    65  60  84 S15       29.88R
6HR MIN TEMP:  62; 6HR MAX TEMP:  67; 6HR PCP:  0.07;

FOND DU LAC    RAIN      64  59  83 S14       29.83S
6HR MIN TEMP:  62; 6HR MAX TEMP:  67; 6HR PCP:  0.14;

SHEBOYGAN      LGT RAIN  62  60  93 S13       29.86R
6HR MIN TEMP:  60; 6HR MAX TEMP:  65; 6HR PCP:  0.10;

WEST BEND      LGT RAIN  61  61 100 S12G17    29.86F
JUNEAU         LGT RAIN  63  61  95 S13       29.84F
6HR MIN TEMP:  60; 6HR MAX TEMP:  65; 6HR PCP:  0.08;

$$

LSZ147-162-281900-
LAKE SUPERIOR

STATION/POSITION TIME  TEMP    WIND        PRES    WAVE
                       AIR SEA DIR/SP/G            HT/PER
                 (UTC) (F)     (DEG/KT/KT) (MB)    (FT/S)
W MID LAKE BUOY  1750   45 39   80/  8/  8 1005.8F   1/ 3
DEVILS ISLAND    1800   53      40/  9/ 10 1004.6F
SAXON HARBOR     1740   67     220/  2/  4 1004.1F
$$

LMZ867-665-643>646-281900-
LAKE MICHIGAN

STATION/POSITION TIME  TEMP    WIND        PRES    WAVE
                       AIR SEA DIR/SP/G            HT/PER
                 (UTC) (F)     (DEG/KT/KT) (MB)    (FT/S)
CHAMBERS ISLAND  1740   63     160/  9/ 20 1009.5R
S GREEN BAY BUOY 1800   65     180/ 16/ 19 1009.4
N MID LAKE BUOY  1750   59 53  170/ 19/ 23 1010.5F   4/ 5
NORTHPORT PIER   1740   63     160/  9/ 21 1009.8F
KEWAUNEE LAKESHO 1754   57     180/ 16/ 19 1010.3R
SHEBOYGAN LAKESH 1800   60     190/ 23/ 26 1011.0R
PORT WA



USA.gov is the U.S. government's official web portal to all federal, state and local government web resources and services.